This is the latest recevied weather packets stored in our database for station/object KB1YTR-1. If no packets are shown the sender has not sent any weather packets the latest 1 day(s).
| Time | Temp. | Humidity | Pressure | Rain* | Wind** | Luminosity | Snow |
|---|---|---|---|---|---|---|---|
| 1778003237 | 2.78° C | 61% | 1008.9 hPa | 0 mm | 2.24 m/s, 306° | - | - |
| 1778002352 | 2.78° C | 61% | 1008.7 hPa | 0 mm | 2.68 m/s, 283° | - | - |
| 1778001507 | 2.22° C | 60% | 1008.6 hPa | 0 mm | 3.58 m/s, 288° | - | - |
| 1778000697 | 2.22° C | 60% | 1008.2 hPa | 0 mm | 4.47 m/s, 322° | - | - |
| 1777999812 | 2.22° C | 63% | 1008.5 hPa | 0 mm | 3.58 m/s, 316° | - | - |
| 1777999047 | 1.67° C | 63% | 1008.5 hPa | 0 mm | 1.79 m/s, 302° | - | - |
| 1777998325 | 1.67° C | 62% | 1008.2 hPa | 0 mm | 3.58 m/s, 334° | - | - |
| 1777997521 | 1.11° C | 66% | 1008.3 hPa | 0 mm | 3.13 m/s, 324° | - | - |
| 1777996772 | 0.56° C | 67% | 1008.3 hPa | 0 mm | 2.24 m/s, 303° | - | - |
| 1777995892 | 0° C | 67% | 1008.3 hPa | 0 mm | 2.24 m/s, 315° | - | - |
| 1777995047 | 0.56° C | 66% | 1008.1 hPa | 0 mm | 2.24 m/s, 304° | - | - |
| 1777994312 | 0° C | 66% | 1007.8 hPa | 0 mm | 6.26 m/s, 329° | - | - |
| 1777993537 | 0.56° C | 65% | 1007.8 hPa | 0 mm | 3.58 m/s, 318° | - | - |
| 1777992738 | 0° C | 66% | 1007.4 hPa | 0 mm | 1.34 m/s, 287° | - | - |
| 1777991852 | 0° C | 66% | 1007.6 hPa | 0 mm | 3.58 m/s, 302° | - | - |
| 1777991012 | 0° C | 66% | 1007.4 hPa | 0 mm | 2.68 m/s, 294° | - | - |
| 1777990162 | 0° C | 68% | 1007.4 hPa | 0 mm | 2.68 m/s, 305° | - | - |
| 1777989367 | -0.56° C | 68% | 1007.3 hPa | 0 mm | 4.47 m/s, 288° | - | - |
| 1777988602 | 0° C | 68% | 1006.9 hPa | 0 mm | 5.81 m/s, 277° | - | - |
| 1777987737 | 0° C | 67% | 1006.7 hPa | 0 mm | 1.79 m/s, 309° | - | - |
| 1777986977 | 0.56° C | 67% | 1006.7 hPa | 0 mm | 4.02 m/s, 295° | - | - |
| 1777986185 | 0° C | 70% | 1006.7 hPa | 0 mm | 1.34 m/s, 281° | - | - |
| 1777985426 | -0.56° C | 71% | 1006.4 hPa | 0 mm | 2.68 m/s, 303° | - | - |
| 1777984692 | 0° C | 72% | 1006.4 hPa | 0 mm | 5.36 m/s, 282° | - | - |
| 1777983922 | -0.56° C | 73% | 1006.2 hPa | 0 mm | 1.34 m/s, 307° | - | - |
* Rain latest hour (hover to see other rain measurements)
** Current wind speed in m/s (hover to see current wind gust speed)